Weather History for Manassas, VA

Change the Weather History Date:

Tuesday, April 30, 2013

  Actual Average Record
Temperature  
Mean Temperature 58 °F -  
Max Temperature 60 °F 68 °F 84 °F (2007)
Min Temperature 55 °F 45 °F 35 °F (2001)
Degree Days  
Heating Degree Days 8    
Growing Degree Days 8 (Base 50)    
Moisture  
Dew Point 56 °F    
Average Humidity 95    
Maximum Humidity 100    
Minimum Humidity 88    
Precipitation  
Precipitation 0.00 in - - ()
Sea Level Pressure  
Sea Level Pressure 30.19 in    
Wind  
Wind Speed 4 mph (NE)    
Max Wind Speed 9 mph    
Max Gust Speed 16 mph    
Visibility 8 miles    
Events      
Averages and records for this station are not official NWS values.
T = Trace of Precipitation, MM = Missing Value Source: NWS Daily Summary

Daily Weather History Graph

Daily Weather History Graph

Search for Another Location

Airport:

Trip Planner

Search our weather history database for the weather conditions in past years. The results will help you decide how hot, cold, wet, or windy it might be!

Date:

Astronomy

Apr. 30, 2013 Rise Set
Actual Time 6:13 AM EDT 8:01 PM EDT
Civil Twilight 5:44 AM EDT 8:30 PM EDT
Nautical Twilight 5:10 AM EDT 9:05 PM EDT
Astronomical Twilight 4:33 AM EDT 9:42 PM EDT
Moon 12:22 AM EDT (4/30) 10:40 AM EDT (4/30)
Length of Visible Light 14h 45m
Length of Day
13h 48m
Waning Gibbous, 70% of the Moon is Illuminated
Apr 30
Waning Gibbous
May 2
Last Quarter
May 9
New
May 18
First Quarter
May 25
Full

Hourly Weather History & Observations

Time (EDT) Temp. Dew Point Humidity Pressure Visibility Wind Dir Wind Speed Gust Speed Precip Events Conditions
12:15 AM 55.4 °F 55.4 °F 100% 30.10 in 10.0 mi NE 4.6 mph - N/A   Overcast
12:35 AM 55.4 °F 55.4 °F 100% 30.10 in 9.0 mi Calm Calm - N/A   Overcast
12:55 AM 55.4 °F 55.4 °F 100% 30.10 in 10.0 mi NE 3.5 mph - N/A   Overcast
1:15 AM 55.4 °F 55.4 °F 100% 30.10 in 10.0 mi NE 3.5 mph - N/A   Overcast
1:35 AM 55.4 °F 55.4 °F 100% 30.10 in 10.0 mi NNE 3.5 mph - N/A   Overcast
1:55 AM 55.4 °F 55.4 °F 100% 30.10 in 10.0 mi NE 3.5 mph - N/A   Overcast
2:15 AM 55.4 °F 55.4 °F 100% 30.10 in 10.0 mi Calm Calm - N/A   Overcast
2:35 AM 55.4 °F 55.4 °F 100% 30.10 in 10.0 mi NNE 5.8 mph - N/A   Overcast
3:15 AM 55.4 °F 55.4 °F 100% 30.09 in 8.0 mi NE 5.8 mph - N/A   Overcast
3:35 AM 55.4 °F 55.4 °F 100% 30.09 in 10.0 mi NNE 3.5 mph - N/A   Overcast
3:55 AM 55.4 °F 55.4 °F 100% 30.10 in 10.0 mi North 5.8 mph - N/A   Overcast
4:35 AM 55.4 °F 55.4 °F 100% 30.10 in 9.0 mi North 3.5 mph - N/A   Overcast
4:55 AM 55.4 °F 55.4 °F 100% 30.11 in 7.0 mi NNE 4.6 mph - N/A   Overcast
5:15 AM 55.4 °F 55.4 °F 100% 30.11 in 6.0 mi NNE 4.6 mph - N/A   Overcast
5:35 AM 55.4 °F 55.4 °F 100% 30.12 in 5.0 mi North 4.6 mph - N/A   Overcast
5:55 AM 55.4 °F 55.4 °F 100% 30.12 in 3.0 mi NNE 4.6 mph - N/A   Overcast
6:15 AM 55.4 °F 55.4 °F 100% 30.13 in 5.0 mi North 5.8 mph - N/A   Overcast
6:30 AM 55.4 °F 53.6 °F 94% 30.14 in 2.5 mi North 5.8 mph - N/A   Overcast
7:45 AM 55.4 °F 55.4 °F 100% 30.16 in 4.0 mi NNE 5.8 mph - N/A   Overcast
8:55 AM 57.2 °F 57.2 °F 100% 30.18 in 5.0 mi NE 9.2 mph - N/A   Overcast
9:55 AM 57.2 °F 57.2 °F 100% 30.18 in 3.0 mi NE 4.6 mph - N/A   Overcast
10:45 AM 59.0 °F 57.2 °F 94% 30.19 in 5.0 mi ENE 3.5 mph - N/A   Overcast
1:55 PM 59.0 °F 55.4 °F 88% 30.20 in 10.0 mi ENE 5.8 mph - N/A   Overcast
2:15 PM 60.8 °F 57.2 °F 88% 30.20 in 10.0 mi East 8.1 mph - N/A   Overcast
2:35 PM 60.8 °F 57.2 °F 88% 30.20 in 10.0 mi ENE 5.8 mph - N/A   Overcast
2:50 PM 60.8 °F 57.2 °F 88% 30.21 in 10.0 mi ENE 5.8 mph - N/A   Overcast
2:55 PM 60.8 °F 57.2 °F 88% 30.21 in 9.0 mi East 9.2 mph - N/A   Overcast
3:15 PM 60.8 °F 57.2 °F 88% 30.21 in 5.0 mi East 4.6 mph - N/A   Overcast
3:35 PM 60.8 °F 57.2 °F 88% 30.21 in 8.0 mi East 9.2 mph - N/A   Overcast
3:55 PM 59.0 °F 57.2 °F 94% 30.22 in 7.0 mi ENE 4.6 mph - N/A   Overcast
4:15 PM 60.8 °F 57.2 °F 88% 30.22 in 10.0 mi NE 5.8 mph - N/A   Overcast
4:35 PM 60.8 °F 57.2 °F 88% 30.22 in 10.0 mi NE 9.2 mph - N/A   Overcast
4:55 PM 60.8 °F 57.2 °F 88% 30.22 in 5.0 mi ENE 6.9 mph 16.1 mph N/A   Overcast
5:15 PM 60.8 °F 57.2 °F 88% 30.23 in 10.0 mi East 8.1 mph 16.1 mph N/A   Overcast
5:35 PM 59.0 °F 57.2 °F 94% 30.22 in 5.0 mi ENE 4.6 mph - N/A   Mostly Cloudy
5:55 PM 57.2 °F 57.2 °F 100% 30.23 in 5.0 mi East 6.9 mph - N/A   Overcast
6:15 PM 57.2 °F 57.2 °F 100% 30.24 in 7.0 mi ENE 4.6 mph - N/A   Overcast
6:35 PM 57.2 °F 57.2 °F 100% 30.24 in 5.0 mi ENE 3.5 mph - N/A   Overcast
6:55 PM 57.2 °F 57.2 °F 100% 30.24 in 6.0 mi NE 6.9 mph - N/A   Overcast
7:15 PM 57.2 °F 57.2 °F 100% 30.25 in 7.0 mi NE 4.6 mph - N/A   Overcast
7:35 PM 57.2 °F 55.4 °F 94% 30.25 in 10.0 mi ENE 3.5 mph - N/A   Overcast
7:45 PM 57.2 °F 55.4 °F 94% 30.26 in 10.0 mi East 4.6 mph - N/A   Overcast
8:30 PM 57.2 °F 53.6 °F 88% 30.26 in 10.0 mi Calm Calm - N/A   Overcast
8:55 PM 57.2 °F 53.6 °F 88% 30.27 in 10.0 mi Calm Calm - N/A   Overcast
9:15 PM 57.2 °F 53.6 °F 88% 30.27 in 10.0 mi Calm Calm - N/A   Overcast
9:35 PM 55.4 °F 53.6 °F 94% 30.28 in 10.0 mi Calm Calm - N/A   Overcast
10:15 PM 55.4 °F 51.8 °F 88% 30.29 in 10.0 mi Calm Calm - N/A   Overcast
10:35 PM 55.4 °F 51.8 °F 88% 30.28 in 10.0 mi Calm Calm - N/A   Overcast
10:55 PM 55.4 °F 53.6 °F 94% 30.29 in 10.0 mi NW 3.5 mph - N/A   Overcast
11:15 PM 55.4 °F 51.8 °F 88% 30.29 in 10.0 mi North 3.5 mph - N/A   Overcast
11:35 PM 55.4 °F 51.8 °F 88% 30.29 in 10.0 mi NNW 3.5 mph - N/A   Overcast
11:55 PM 55.4 °F 51.8 °F 88% 30.29 in 10.0 mi North 3.5 mph - N/A   Overcast